Tracking 29892 objects as of 21-Nov-2024
HD Live streaming from Space Station
objects crossing your sky now

COSMOS 2026

Track COSMOS 2026 now!
10-day predictions
COSMOS 2026 is classified as:


NORAD ID: 20045
Int'l Code: 1989-042A
Perigee: 954.4 km
Apogee: 1,014.7 km
Inclination: 82.9 °
Period: 104.6 minutes
Semi major axis: 7355 km
RCS: 2.3991 m2 (large)
Launch date: June 7, 1989
Source: Commonwealth of Independent States (former USSR) (CIS)
Launch site: PLESETSK MISSILE AND SPACE COMPLEX (PKMTR)
Your satellite tracking list
Your tracking list is empty




NASA's NSSDC Master Catalog

Two Line Element Set (TLE):
1 20045U 89042A   24325.87234330  .00000044  00000-0  28790-4 0  9998
2 20045  82.9378 113.9174 0040934 123.4297  40.4674 13.76194036780431
Source of the keplerian elements: AFSPC